EW7507 Weather Reports


Display with metric or nautical units.
time (UTC)temp
F
wind
direction
speed
MPH
gust
MPH
rain 1hr
in
rain 24hr
in
rain mn
in
humidity
%
barometer
mb
20260831032059 53 259 5.0 10.0 0.06 0.21 0.21 82 971.2
20260831032052 53 247 5.0 12.0 0.06 0.21 0.21 82 971.1
20260831031053 53 298 4.0 11.0 0.06 0.21 0.21 82 971.1
20260831030554 53 203 5.0 15.0 0.05 0.20 0.20 83 971.1
20260831030053 53 289 6.0 15.0 0.05 0.20 0.20 82 971.0
20260831025600 53 316 5.0 12.0 0.01 0.15 0.15 80 970.9
20260831025553 53 300 7.0 12.0 0.02 0.17 0.18 81 971.1
20260831024600 53 240 4.0 17.0 0.04 0.15 0.15 80 970.6
20260831024553 53 292 4.0 16.0 0.02 0.15 0.15 80 970.6
20260831023553 53 264 10.0 17.0 0.06 0.15 0.15 79 970.6
20260831023052 53 298 8.0 15.0 0.06 0.15 0.15 80 970.3
20260831022552 53 279 6.0 14.0 0.07 0.15 0.15 80 969.9
20260831022058 53 210 6.0 17.0 0.07 0.15 0.15 80 969.6
20260831022051 53 290 6.0 14.0 0.07 0.15 0.15 79 969.7
20260831021050 53 302 9.0 23.0 0.08 0.15 0.15 80 970.1
20260831020558 53 302 10.0 18.0 0.09 0.15 0.15 82 970.4
20260831020551 53 266 9.0 23.0 0.08 0.15 0.15 81 970.4
20260831020215 53 310 7.0 18.0 0.10 0.15 0.15 81 969.9
20260831015058 53 272 9.0 19.0 0.10 0.13 0.13 82 970.7
20260831015050 53 234 9.0 19.0 0.10 0.14 0.14 82 970.1
20260831014050 53 276 11.0 16.0 0.09 0.11 0.11 82 971.1
20260831013551 54 290 9.0 14.0 0.07 0.09 0.09 83 970.7
20260831013049 54 247 5.0 18.0 0.07 0.09 0.09 82 970.6
20260831012551 54 255 9.0 18.0 0.07 0.08 0.08 82 970.0
20260831012058 54 275 6.0 13.0 0.07 0.08 0.08 80 969.9
20260831012050 54 264 7.0 13.0 0.07 0.08 0.08 82 969.8
20260831011049 54 214 4.0 16.0 0.06 0.07 0.07 79 969.6
20260831010550 55 268 7.0 16.0 0.06 0.07 0.07 79 969.5
20260831010050 55 203 6.0 16.0 0.05 0.06 0.06 78 969.8
20260831005550 56 286 3.0 16.0 0.04 0.05 0.05 77 970.9
20260831005056 56 290 1.0 10.0 0.02 0.03 0.03 75 970.2
20260831005048 56 319 8.0 13.0 0.03 0.04 0.04 76 970.6
20260831004048 57 295 1.0 14.0 0.01 0.02 0.02 74 970.0
20260831003558 58 295 8.0 22.0 0.01 0.02 0.02 70 969.9
20260831003551 57 313 5.0 22.0 0.01 0.02 0.02 72 970.0
20260831002550 58 302 14.0 34.0 0.00 0.01 0.01 67 969.9
20260831002048 59 257 17.0 34.0 0.00 0.01 0.01 63 969.4
20260831001549 59 303 12.0 19.0 0.00 0.01 0.01 59 969.0
20260831001055 59 264 10.0 22.0 0.00 0.01 0.01 60 969.0
20260831001048 59 266 8.0 22.0 0.00 0.01 0.01 59 968.9
20260831000047 59 298 9.0 24.0 0.00 0.01 0.01 61 969.1
20260830235548 59 248 10.0 24.0 0.00 0.01 0.01 59 969.0
20260830235049 59 326 0.0 12.0 0.01 0.01 0.01 67 968.9
20260830234548 59 244 4.0 12.0 0.01 0.01 0.01 67 969.0
20260830234047 59 214 2.0 10.0 0.01 0.01 0.01 67 968.9
20260830233556 58 264 2.0 13.0 0.01 0.01 0.01 67 969.1
20260830233548 59 190 3.0 11.0 0.01 0.01 0.01 67 969.0
20260830233218 58 262 0.0 10.0 0.01 0.01 0.01 67 969.1
20260830233210 58 234 3.0 13.0 0.01 0.01 0.01 67 969.1
20260830232211 58 264 2.0 16.0 0.01 0.01 0.01 66 969.2
20260830231046 59 251 1.0 16.0 0.01 0.01 0.01 65 969.1
20260830230549 59 245 4.0 15.0 0.01 0.01 0.01 67 969.1
20260830230046 58 241 2.0 16.0 0.01 0.01 0.01 69 969.1
20260830225554 59 257 3.0 14.0 0.00 0.00 0.00 69 969.1
20260830225547 58 243 3.0 16.0 0.01 0.01 0.01 66 969.1
20260830224545 59 245 3.0 10.0 0.00 0.00 0.00 68 969.3
20260830224045 59 254 0.0 9.0 0.00 0.00 0.00 71 969.3
20260830223546 59 210 2.0 12.0 0.00 0.00 0.00 69 969.4
20260830223054 60 290 5.0 12.0 0.00 0.00 0.00 70 969.7
20260830223046 59 257 3.0 12.0 0.00 0.00 0.00 69 969.5
20260830222217 59 323 2.0 12.0 0.00 0.00 0.00 66 969.6
20260830222046 60 300 2.0 14.0 0.00 0.00 0.00 71 969.6
20260830221546 59 312 5.0 14.0 0.00 0.00 0.00 72 969.7
20260830221051 59 309 1.0 10.0 0.00 0.00 0.00 68 969.6
20260830221043 59 317 1.0 7.0 0.00 0.00 0.00 71 969.6
20260830220845 59 309 6.0 12.0 0.00 0.00 0.00 66 969.8
20260830215044 59 306 3.0 9.0 0.00 0.00 0.00 69 969.6
20260830214545 59 330 0.0 7.0 0.00 0.00 0.00 72 969.6
20260830214044 58 307 0.0 7.0 0.00 0.00 0.00 69 969.6
20260830213545 58 348 0.0 13.0 0.00 0.00 0.00 68 969.7
20260830213044 58 345 6.0 13.0 0.00 0.00 0.00 66 969.8
20260830212545 58 320 4.0 15.0 0.00 0.00 0.00 63 970.0
20260830212043 59 341 6.0 15.0 0.00 0.00 0.00 62 969.9
20260830211544 59 323 9.0 17.0 0.00 0.00 0.00 60 969.8
20260830211043 60 321 10.0 17.0 0.00 0.00 0.00 59 969.8
20260830210545 60 337 6.0 15.0 0.00 0.00 0.00 60 969.8
20260830210043 60 0 2.0 14.0 0.00 0.00 0.00 58 969.7
20260830205551 61 345 6.0 11.0 0.00 0.00 0.00 57 969.4
20260830205544 61 350 4.0 12.0 0.00 0.00 0.00 61 969.6
20260830204544 62 6 5.0 12.0 0.00 0.00 0.00 56 969.2
20260830204042 64 317 4.0 12.0 0.00 0.00 0.00 53 969.2
20260830203544 65 329 3.0 15.0 0.00 0.00 0.00 46 969.2
20260830203042 65 0 3.0 18.0 0.00 0.00 0.00 43 969.0
20260830202544 66 317 4.0 18.0 0.00 0.00 0.00 38 968.8
20260830202042 66 247 4.0 13.0 0.00 0.00 0.00 37 968.6
20260830201543 67 214 1.0 11.0 0.00 0.00 0.00 37 968.6
20260830201042 69 237 3.0 13.0 0.00 0.00 0.00 35 968.6
20260830200552 69 275 6.0 17.0 0.00 0.00 0.00 37 968.5
20260830200544 70 240 1.0 14.0 0.00 0.00 0.00 36 968.6
20260830195543 68 226 6.0 18.0 0.00 0.00 0.00 37 968.3
20260830195042 69 227 6.0 18.0 0.00 0.00 0.00 38 968.3
20260830194551 69 217 5.0 17.0 0.00 0.00 0.00 36 968.6
20260830194544 69 203 6.0 17.0 0.00 0.00 0.00 36 968.5
20260830193542 68 238 5.0 16.0 0.00 0.00 0.00 38 968.6
20260830193041 67 309 5.0 18.0 0.00 0.00 0.00 39 968.6
20260830192542 66 220 5.0 18.0 0.00 0.00 0.00 39 968.7
20260830192040 66 210 6.0 18.0 0.00 0.00 0.00 40 968.7
20260830191543 67 180 5.0 18.0 0.00 0.00 0.00 39 968.7
20260830191041 67 262 9.0 23.0 0.00 0.00 0.00 39 968.7
20260830190542 68 250 9.0 23.0 0.00 0.00 0.00 37 968.7
20260830190048 68 265 2.0 24.0 0.00 0.00 0.00 38 968.7
20260830190040 69 224 8.0 20.0 0.00 0.00 0.00 37 968.8
20260830185039 67 279 7.0 24.0 0.00 0.00 0.00 38 968.8
20260830184541 68 183 9.0 19.0 0.00 0.00 0.00 38 968.7
20260830184040 68 235 6.0 19.0 0.00 0.00 0.00 37 968.8
20260830183548 67 262 4.0 18.0 0.00 0.00 0.00 39 968.8
20260830183540 68 192 5.0 18.0 0.00 0.00 0.00 39 968.8
20260830182541 67 269 11.0 21.0 0.00 0.00 0.00 39 969.0
20260830182040 67 173 9.0 21.0 0.00 0.00 0.00 40 968.9
20260830181541 67 182 6.0 20.0 0.00 0.00 0.00 40 968.9
20260830181038 68 186 6.0 17.0 0.00 0.00 0.00 39 969.0
20260830180540 67 279 5.0 20.0 0.00 0.00 0.00 41 969.0
20260830180039 66 238 6.0 30.0 0.00 0.00 0.00 42 968.9
20260830175540 65 183 12.0 30.0 0.00 0.00 0.00 40 969.0
20260830175040 66 219 6.0 22.0 0.00 0.00 0.00 41 969.0
20260830174540 65 243 8.0 22.0 0.00 0.00 0.00 41 969.2
20260830174038 65 257 8.0 19.0 0.00 0.00 0.00 42 969.2
20260830173540 64 255 6.0 23.0 0.00 0.00 0.00 42 969.2
20260830173045 65 251 10.0 17.0 0.00 0.00 0.00 41 969.4
20260830173037 65 247 6.0 23.0 0.00 0.00 0.00 41 969.4
20260830172038 65 293 4.0 22.0 0.00 0.00 0.00 42 969.3
20260830171538 64 189 5.0 23.0 0.00 0.00 0.00 41 969.4
20260830171045 63 202 7.0 16.0 0.00 0.00 0.00 45 969.5
20260830171038 64 283 11.0 23.0 0.00 0.00 0.00 42 969.5
20260830170038 62 162 2.0 16.0 0.00 0.00 0.00 45 969.4
20260830165538 62 204 4.0 16.0 0.00 0.00 0.00 46 969.4
20260830165037 62 169 2.0 16.0 0.00 0.00 0.00 45 969.5
20260830164545 62 203 3.0 15.0 0.00 0.00 0.00 45 969.5
20260830164538 62 283 2.0 14.0 0.00 0.00 0.00 47 969.5
20260830163538 62 230 7.0 23.0 0.00 0.00 0.00 44 969.5
20260830163037 63 248 11.0 23.0 0.00 0.00 0.00 43 969.5
20260830162538 63 245 5.0 20.0 0.00 0.00 0.00 44 969.4
20260830162044 63 190 4.0 17.0 0.00 0.00 0.00 45 969.4
20260830162036 63 250 9.0 20.0 0.00 0.00 0.00 44 969.5
20260830161035 63 179 4.0 21.0 0.00 0.00 0.00 45 969.6
20260830160537 63 190 7.0 21.0 0.00 0.00 0.00 44 969.5
20260830160035 62 202 6.0 19.0 0.00 0.00 0.00 45 969.4
20260830155537 62 195 5.0 13.0 0.00 0.00 0.00 46 969.5
20260830155036 61 235 1.0 13.0 0.00 0.00 0.00 48 969.4
20260830154537 60 192 4.0 14.0 0.00 0.00 0.00 49 969.5
20260830154036 60 207 3.0 14.0 0.00 0.00 0.00 48 969.7
20260830153536 60 192 0.0 12.0 0.00 0.00 0.00 50 969.7
20260830153034 60 195 3.0 13.0 0.00 0.00 0.00 50 969.7
20260830152534 59 271 4.0 13.0 0.00 0.00 0.00 53 969.7
20260830152035 59 259 4.0 12.0 0.00 0.00 0.00 52 969.7
20260830151536 59 204 4.0 12.0 0.00 0.00 0.00 51 969.7
20260830151034 58 221 1.0 9.0 0.00 0.00 0.00 52 969.8
20260830150542 57 237 0.0 7.0 0.00 0.00 0.00 55 969.9
20260830150535 58 185 1.0 9.0 0.00 0.00 0.00 54 969.7
20260830145535 57 233 0.0 14.0 0.00 0.00 0.00 54 970.0
20260830145034 57 228 2.0 14.0 0.00 0.00 0.00 54 969.9
20260830144535 56 259 1.0 6.0 0.00 0.00 0.00 56 970.0
20260830144034 55 221 1.0 6.0 0.00 0.00 0.00 58 970.0
20260830143535 54 271 0.0 5.0 0.00 0.00 0.00 57 970.0
20260830143033 54 283 1.0 5.0 0.00 0.00 0.00 58 969.9
20260830142534 53 292 1.0 5.0 0.00 0.00 0.00 59 969.9
20260830142034 52 281 1.0 5.0 0.00 0.00 0.00 60 969.9
20260830141534 52 281 0.0 5.0 0.00 0.00 0.00 61 969.9
20260830141033 51 283 1.0 5.0 0.00 0.00 0.00 61 969.9
20260830140534 51 264 0.0 4.0 0.00 0.00 0.00 61 970.0
20260830140032 50 262 1.0 6.0 0.00 0.00 0.00 61 969.9
20260830135534 50 220 2.0 6.0 0.00 0.00 0.00 62 969.9
20260830135033 49 240 2.0 6.0 0.00 0.00 0.00 64 970.0
20260830134534 48 197 0.0 2.0 0.00 0.00 0.00 65 969.9
20260830134032 48 228 0.0 2.0 0.00 0.00 0.00 65 969.8
20260830133535 47 262 0.0 0.0 0.00 0.00 0.00 66 969.7
20260830133032 47 265 0.0 0.0 0.00 0.00 0.00 67 969.8
20260830132532 47 264 0.0 0.0 0.00 0.00 0.00 67 969.8
20260830132032 47 264 0.0 2.0 0.00 0.00 0.00 66 969.8
20260830131534 47 259 0.0 2.0 0.00 0.00 0.00 65 969.8
20260830131032 47 213 0.0 1.0 0.00 0.00 0.00 64 969.8
20260830130532 47 213 0.0 1.0 0.00 0.00 0.00 63 969.8
20260830130039 48 213 0.0 0.0 0.00 0.00 0.00 64 969.9
20260830130032 47 213 0.0 1.0 0.00 0.00 0.00 63 969.9
20260830125158 48 213 0.0 3.0 0.00 0.00 0.00 62 969.9
20260830125038 48 213 0.0 0.0 0.00 0.00 0.00 62 969.9
20260830125032 48 213 0.0 0.0 0.00 0.00 0.00 64 969.9
20260830123530 48 213 0.0 3.0 0.00 0.00 0.00 62 969.8
20260830123029 48 209 0.0 3.0 0.00 0.00 0.00 61 969.8
20260830122532 49 209 0.0 3.0 0.00 0.00 0.00 60 969.8
20260830122029 49 209 0.0 3.0 0.00 0.00 0.00 59 970.0
20260830121532 49 252 0.0 3.0 0.00 0.00 0.00 59 970.0
20260830121029 49 261 0.0 6.0 0.00 0.00 0.00 59 970.0
20260830120531 49 264 2.0 7.0 0.00 0.00 0.00 58 970.0
20260830120030 49 254 2.0 7.0 0.00 0.00 0.00 58 969.8
20260830115531 49 179 2.0 7.0 0.00 0.00 0.00 58 969.9
20260830115036 50 183 1.0 4.0 0.00 0.00 0.00 56 969.8
20260830115029 49 183 1.0 4.0 0.00 0.00 0.00 58 969.8
20260830114029 51 240 0.0 0.0 0.00 0.00 0.00 55 969.8
20260830113538 51 264 0.0 0.0 0.00 0.00 0.00 56 969.9
20260830113531 51 245 0.0 0.0 0.00 0.00 0.00 56 969.8
20260830112538 52 282 0.0 0.0 0.00 0.00 0.00 57 969.8
20260830112530 51 282 0.0 0.0 0.00 0.00 0.00 57 969.9
20260830112155 52 282 0.0 0.0 0.00 0.00 0.00 57 969.8
20260830111655 52 282 0.0 0.0 0.00 0.00 0.00 56 969.9
20260830110531 52 282 0.0 0.0 0.00 0.00 0.00 55 969.8
20260830110027 53 285 0.0 0.0 0.00 0.00 0.00 54 969.7
20260830105529 53 234 0.0 0.0 0.00 0.00 0.00 53 969.8
20260830105028 53 227 0.0 0.0 0.00 0.00 0.00 53 969.8
20260830104530 53 227 0.0 0.0 0.00 0.00 0.00 52 969.7
20260830104027 53 227 0.0 0.0 0.00 0.00 0.00 52 969.6
20260830103530 54 227 0.0 0.0 0.00 0.00 0.00 52 969.7
20260830103027 54 237 0.0 0.0 0.00 0.00 0.00 52 969.7
20260830102527 54 237 0.0 0.0 0.00 0.00 0.00 49 969.9
20260830102035 55 237 0.0 0.0 0.00 0.00 0.00 50 969.8
20260830102028 55 237 0.0 0.0 0.00 0.00 0.00 51 969.8
20260830101027 56 237 0.0 0.0 0.00 0.00 0.00 49 969.7
20260830100529 56 237 0.0 0.0 0.00 0.00 0.00 48 969.5
20260830100033 56 237 0.0 0.0 0.00 0.00 0.00 47 969.5
20260830100026 56 237 0.0 0.0 0.00 0.00 0.00 48 969.5
20260830095652 56 237 0.0 0.0 0.00 0.00 0.00 47 969.5
20260830094527 56 237 0.0 0.0 0.00 0.00 0.00 47 969.6
20260830094025 57 237 0.0 0.0 0.00 0.00 0.00 47 969.6
20260830093535 57 237 0.0 2.0 0.00 0.00 0.00 46 969.4
20260830093527 57 237 0.0 0.0 0.00 0.00 0.00 46 969.5
20260830092527 57 237 0.0 7.0 0.00 0.00 0.00 46 969.3
20260830092026 57 217 2.0 7.0 0.00 0.00 0.00 46 969.4
20260830091527 57 182 2.0 7.0 0.00 0.00 0.00 47 969.5
20260830091025 57 209 0.0 5.0 0.00 0.00 0.00 50 969.6
20260830090533 57 209 0.0 6.0 0.00 0.00 0.00 47 969.7
20260830090526 57 209 0.0 0.0 0.00 0.00 0.00 47 969.6
20260830085525 57 209 0.0 9.0 0.00 0.00 0.00 46 969.7
20260830085026 57 199 0.0 10.0 0.00 0.00 0.00 46 969.9
20260830084526 57 188 3.0 11.0 0.00 0.00 0.00 47 969.9
20260830084024 57 268 3.0 11.0 0.00 0.00 0.00 48 970.0
20260830083526 57 188 0.0 6.0 0.00 0.00 0.00 48 969.8
20260830083024 57 168 2.0 6.0 0.00 0.00 0.00 48 969.6
20260830082525 57 176 0.0 6.0 0.00 0.00 0.00 49 969.7
20260830082023 57 179 1.0 7.0 0.00 0.00 0.00 47 969.7
20260830081524 57 193 3.0 7.0 0.00 0.00 0.00 48 969.7
20260830081023 57 185 2.0 7.0 0.00 0.00 0.00 47 969.8
20260830080525 57 193 0.0 2.0 0.00 0.00 0.00 48 969.7
20260830080024 57 190 0.0 2.0 0.00 0.00 0.00 49 969.8
20260830075531 57 209 0.0 6.0 0.00 0.00 0.00 48 969.8
20260830075523 57 190 0.0 5.0 0.00 0.00 0.00 48 969.8
20260830074523 57 190 0.0 11.0 0.00 0.00 0.00 47 969.8
20260830074023 58 197 2.0 11.0 0.00 0.00 0.00 47 969.9
20260830073524 58 234 0.0 7.0 0.00 0.00 0.00 47 969.6
20260830073023 58 204 0.0 9.0 0.00 0.00 0.00 46 969.6
20260830072524 58 197 0.0 12.0 0.00 0.00 0.00 46 969.6
20260830072024 58 209 1.0 12.0 0.00 0.00 0.00 46 969.7
20260830071524 59 212 0.0 5.0 0.00 0.00 0.00 45 969.6
20260830071022 59 274 0.0 9.0 0.00 0.00 0.00 44 969.6
20260830070536 60 200 4.0 14.0 0.00 0.00 0.00 42 969.5
20260830070527 59 158 2.0 14.0 0.00 0.00 0.00 43 969.5
20260830065523 60 206 4.0 12.0 0.00 0.00 0.00 42 969.5
20260830065022 60 238 4.0 12.0 0.00 0.00 0.00 42 969.4
20260830064524 60 203 0.0 13.0 0.00 0.00 0.00 42 969.5
20260830064021 60 224 5.0 13.0 0.00 0.00 0.00 42 969.6
20260830063528 60 207 3.0 12.0 0.00 0.00 0.00 42 969.6
20260830063021 60 204 1.0 10.0 0.00 0.00 0.00 43 969.7
20260830062523 60 169 1.0 13.0 0.00 0.00 0.00 44 969.7
20260830062021 60 179 5.0 13.0 0.00 0.00 0.00 43 969.6
20260830061522 60 209 3.0 7.0 0.00 0.00 0.00 45 969.5
20260830061021 60 233 2.0 7.0 0.00 0.00 0.00 45 969.6
20260830060530 59 212 0.0 7.0 0.00 0.00 0.00 49 969.6
20260830060523 59 250 2.0 5.0 0.00 0.00 0.00 48 969.5
20260830055523 59 262 0.0 7.0 0.00 0.00 0.00 50 969.5
20260830055021 59 240 1.0 6.0 0.00 0.00 0.00 55 969.5
20260830054522 59 261 0.0 1.0 0.00 0.00 0.00 60 969.6
20260830054020 59 261 0.0 1.0 0.00 0.00 0.00 62 969.6
20260830053524 60 261 0.0 0.0 0.00 0.00 0.00 64 969.6
20260830053027 60 238 0.0 1.0 0.00 0.00 0.00 64 969.5
20260830053020 60 238 0.0 1.0 0.00 0.00 0.00 63 969.6
20260830052026 60 257 0.0 0.0 0.00 0.00 0.00 66 969.6
20260830052020 60 221 0.0 0.0 0.00 0.00 0.00 65 969.7
20260830051019 60 241 0.0 1.0 0.00 0.00 0.00 66 969.6
20260830050522 60 207 0.0 3.0 0.00 0.00 0.00 66 969.6
20260830050027 60 202 0.0 1.0 0.00 0.00 0.00 66 969.4
20260830050019 60 204 0.0 3.0 0.00 0.00 0.00 66 969.6
20260830045020 61 202 0.0 1.0 0.00 0.00 0.00 66 969.4
20260830044521 61 200 0.0 0.0 0.00 0.00 0.00 66 969.4
20260830044020 61 200 0.0 0.0 0.00 0.00 0.00 66 969.4
20260830043532 61 197 0.0 2.0 0.00 0.00 0.00 66 969.3
20260830043523 61 200 0.0 2.0 0.00 0.00 0.00 66 969.3
20260830042523 61 189 0.0 5.0 0.00 0.00 0.00 66 969.3
20260830042017 61 237 0.0 5.0 0.00 0.00 0.00 66 969.3
20260830041520 61 226 0.0 4.0 0.00 0.00 0.00 66 969.3
20260830041017 62 226 0.0 6.0 0.00 0.00 0.00 66 969.3
20260830040530 61 183 3.0 10.0 0.00 0.00 0.00 66 969.3
20260830040521 62 231 1.0 10.0 0.00 0.00 0.00 65 969.4
20260830035521 61 231 2.0 7.0 0.00 0.00 0.00 66 969.4
20260830035019 61 296 0.0 4.0 0.00 0.00 0.00 66 969.4
20260830034521 61 200 0.0 7.0 0.00 0.00 0.00 66 969.3
20260830034016 61 228 2.0 7.0 0.00 0.00 0.00 66 969.2
20260830033529 61 221 0.0 4.0 0.00 0.00 0.00 67 969.1
20260830033520 61 244 1.0 3.0 0.00 0.00 0.00 67 969.2
20260830033141 61 221 0.0 7.0 0.00 0.00 0.00 66 969.1